Location: Sungai Dema
(2.4500°N, 114.2167°E)
Time: 13:05:11
(UTC+00:00)

Daily predictions for brighter satellites

Satellite Brightness Start Highest point End
(mag) Time Altitude Azimuth Time Altitude Azimuth Time Altitude Azimuth
BREEZE-M R/B 4.3 12:01:48 10° N 12:02:46 18° NNE 12:02:46 18° NNE
GPS 2-17 Rocket1 4.4 12:00:37 10° SW 12:02:55 23° SSW 12:02:55 23° SSW
Sylda 4400 3.8 12:02:44 10° WNW 12:04:57 38° N 12:04:57 38° N
ARGOS 4.0 12:00:12 10° S 12:05:21 49° WSW 12:10:31 10° NNW
H-2A R/B 4.3 12:07:49 10° SSW 12:11:38 22° W 12:15:31 10° NW
ATLAS 5 CENTAUR R/B 2.6 12:10:13 10° W 12:10:59 16° W 12:10:59 16° W
CSL-04 Rocket 3.5 12:11:32 48° SSE 12:13:07 81° ENE 12:18:36 10° N
Cosmos 220 Rocket 3.9 12:16:09 85° NW 12:16:09 85° NW 12:20:24 10° N
Cosmos 1821 Rocket 4.2 12:12:03 10° NNE 12:17:23 46° ENE 12:17:23 46° ENE
Cosmos 2221 Rocket 3.9 12:16:20 37° SSW 12:17:58 66° W 12:22:25 10° N
Ariane H10 4.2 12:16:30 10° WSW 12:20:18 32° SW 12:20:18 32° SW
Timation 2 Rocket 4.3 12:17:54 10° N 12:23:44 48° ENE 12:23:44 48° ENE
Ariane 3 Deb 3.3 12:13:48 10° W 12:28:09 65° N 12:28:46 59° NE
Cosmos 2219 3.5 12:43:05 10° NNW 12:48:00 63° NW 12:48:00 63° NW
USA 234 3.8 12:52:36 44° SW 12:53:21 46° SW 12:59:34 10° NW
Cosmos 2297 Rocket 2.9 12:49:40 10° NNW 12:54:39 48° W 12:54:39 48° W
Atlas Centaur 2 3.8 12:52:15 10° NNW 12:53:44 19° NNW 12:53:44 19° NNW
Cosmos 2227 Rocket 3.0 12:52:53 10° NNW 12:57:02 48° NW 12:57:02 48° NW
SL-16 R/B 4.3 13:15:25 10° WSW 13:19:42 22° WNW 13:23:59 10° NNW
Cosmos 2322 Rocket 4.0 13:24:41 26° NW 13:24:41 26° NW 13:28:19 10° NNW
Centaur D-1AR AC-39 4.5 13:36:46 10° W 13:45:57 24° NW 13:46:18 24° NNW
Cosmos 2082 Rocket 4.5 19:25:47 17° ESE 19:25:55 17° ESE 19:29:22 10° ENE
COSMOS 2406 4.5 19:38:07 37° NE 19:38:07 37° NE 19:41:41 10° NNE
Atlas 2A Centaur Rocket 4.4 19:50:30 19° ENE 19:50:30 19° ENE 19:51:13 10° ENE
FENGYUN 3A 4.4 19:47:23 10° NNE 19:51:47 50° ENE 19:51:47 50° ENE
Delta 202 4.0 20:02:16 63° E 20:02:16 63° E 20:07:34 10° ENE
ARIANE 5 R/B 4.0 20:05:14 82° WSW 20:05:31 88° S 20:22:41 10° E
ARIANE 5 DEB (SYLDA) 4.2 20:11:54 45° SE 20:11:54 45° SE 20:19:26 10° E
SL-24 R/B - RUBIN 2 4.4 20:10:51 80° SW 20:11:13 86° WNW 20:17:52 10° NNE
Centaur AC-69 3.6 20:11:54 80° E 20:11:54 80° E 20:24:07 10° ENE
NOSS 3-4 (A) 3.2 20:14:05 78° NW 20:14:05 78° NW 20:19:38 10° NNE
NOSS 3-4 (C) 3.2 20:14:10 79° NW 20:14:10 79° NW 20:19:45 10° NNE
ATLAS 2A CENTAUR R/B 4.1 20:12:11 10° N 20:15:09 20° NE 20:21:36 10° E
Cosmos 1932 4.3 20:08:59 10° NNW 20:15:10 86° ENE 20:21:25 10° SSE
Cosmos 1484 Rocket 4.4 20:11:35 10° NNE 20:13:46 31° NE 20:13:46 31° NE
METEOR-M 4.4 20:10:04 10° NNE 20:15:19 64° ESE 20:16:18 53° SSE
Ariane H10 4.2 20:17:25 18° SE 20:17:25 18° SE 20:20:00 10° ESE
Gbstr 26 Del rocket 4.3 20:19:25 34° N 20:19:25 34° N 20:22:28 10° NNE
Cosmos 1818 3.8 20:18:55 56° SSE 20:19:40 63° ESE 20:25:00 10° NNE
Lacrosse 4 Rocket 3.8 20:19:47 10° NNE 20:22:57 22° ENE 20:26:07 10° ESE
PSLV R/B 4.5 20:18:45 10° N 20:21:38 41° N 20:21:38 41° N
ATLAS 2AS CENTAUR R/B 3.4 20:19:37 29° S 20:23:40 60° ESE 20:31:22 10° NE
ARIANE 5 DEB (SYLDA) 3.0 20:29:10 80° SE 20:29:10 80° SE 20:33:44 10° E
Centaur AC-112 3.3 20:30:17 51° NW 20:31:00 57° NNW 20:43:48 10° ENE
USA 281 3.1 20:28:03 25° S 20:31:56 58° WSW 20:38:20 10° NNW
Cosmos 2298 Rocket 3.9 20:31:16 10° NNW 20:36:35 89° ENE 20:41:55 10° SSE
GPS 2-15 Rocket1 3.1 20:37:21 63° SSW 20:37:53 70° SSE 20:42:48 10° ENE
Meteor 2-6 Rocket 4.2 20:34:50 10° N 20:40:35 86° E 20:46:11 10° S
Cosmos 1538 Rocket 4.2 20:43:06 49° WSW 20:43:51 53° WNW 20:49:03 10° N
Stardust Del rocket 4.0 20:47:10 39° WNW 20:48:08 46° NNW 20:51:16 10° NE
CBERS 1 LM4 rocket 4.3 20:43:59 10° NNE 20:48:51 89° WNW 20:51:28 27° SSW
Cosmos 2150 Rocket 3.9 20:44:47 10° NNW 20:50:01 70° WSW 20:55:21 10° S
CZ-3 Stage 3 2.2 20:52:28 24° SSE 20:52:50 25° SE 20:56:38 10° ENE
Cosmos 2315 Rocket 3.9 20:49:09 10° N 20:55:19 75° W 21:01:33 10° S
Cosmos 1833 Rocket 4.2 20:56:49 18° WNW 20:56:49 18° WNW 20:59:55 10° NNW
Cosmos 158 Rocket 3.8 20:54:59 34° SW 20:56:57 62° WNW 21:01:44 10° N
SL-08 ROCKET BODY 4.3 20:53:22 21° SSW 20:57:27 63° W 21:03:13 10° N
Sich 1 3.1 20:57:01 40° SW 20:58:10 53° W 21:02:22 10° N
Cosmos 1812 4.0 20:55:57 10° NNW 20:58:00 25° NW 20:58:00 25° NW
H-2A R/B 4.2 20:56:28 10° NNE 21:00:01 36° E 21:03:33 10° SSE
Ariane 42L Rocket 2.0 21:03:43 37° NNW 21:03:56 38° N 21:06:37 10° ENE
MOS 1 Rocket 3.9 21:00:42 10° SSE 21:05:06 53° E 21:09:18 10° N
ALOS 3.9 21:04:54 10° NW 21:07:17 16° WNW 21:07:17 16° WNW
YAOGAN 6 4.1 21:05:54 10° NNE 21:09:06 35° E 21:12:17 10° SSE
Cosmos 2082 Rocket 2.9 21:07:42 26° WSW 21:09:41 33° WNW 21:14:39 10° NNW
Cosmos 1125 Rocket 3.6 21:05:28 10° NNW 21:10:34 52° WSW 21:15:43 10° S
Cosmos 1745 Rocket 3.9 21:06:19 10° S 21:12:34 80° W 21:18:44 10° N
RESURS DK-1 3.9 21:10:01 10° S 21:13:48 35° ESE 21:17:34 10° NE
Cosmos 1515 Rocket 4.3 21:11:39 10° NNW 21:15:33 31° W 21:18:06 18° SW
ASTRO E2 4.1 21:15:33 10° NW 21:19:16 39° NNE 21:22:59 10° ESE
Cosmos 1633 Rocket 3.0 21:14:59 10° S 21:19:21 73° W 21:23:43 10° N
Cosmos 1386 Rocket 4.4 21:17:26 10° SSW 21:23:20 62° W 21:29:16 10° N
SWIFT 4.0 21:22:14 13° SSW 21:24:52 22° SSE 21:28:10 10° ESE
CZ-4B R/B 3.6 21:25:22 10° NNE 21:29:48 64° ESE 21:34:12 10° S
Cosmos 923 Rocket 4.5 21:29:15 10° SW 21:33:58 39° WNW 21:38:49 10° N
ARIANE 5 R/B 2.8 21:33:02 11° W 21:37:08 80° N 21:41:47 10° E
Cosmos 1707 Rocket 4.4 21:36:17 10° N 21:40:31 54° E 21:44:45 10° SSE
Cosmos 44 Rocket 4.0 21:35:55 10° S 21:40:41 56° ESE 21:45:37 10° NNE
Cosmos 1500 4.0 21:46:05 10° SSW 21:49:24 30° W 21:52:42 10° NNW
H-2A R/B 3.6 21:47:12 10° SSE 21:51:28 43° ENE 21:55:39 10° N
ARIANE 5 R/B 4.4 21:52:37 10° W 23:07:06 78° S 23:12:02 10° E
